sat.trackr.live / text

‹ back to catalog

STARLINK-2270

NORAD 48000 · 2021-024Z

PAYLOAD ACTIVE UNKNOWN

§ Identity

Operator
Country
US
Launch date
2021-03-24
Launch site
AFETR
Launch vehicle
Mass (kg)
RCS (m²)

Purposes: comms

External: N2YO · Heavens-Above · Gunter

§ Orbital elements

Epoch: 2026-05-24T23:56:10.423104Z

Period
93.50 min
Inclination
53.1280°
Eccentricity
0.0003786
Mean motion
15.40052813 rev/d
Perigee alt
443.4 km
Apogee alt
448.5 km
Semi-major
6,824.1 km
B*
1.0961e-3
RAAN
244.7377°
Arg perigee
316.0982°
Mean anomaly
43.9722°
Rev number
28,755

§ Raw data

STARLINK-22701 48000U 21024Z   26144.99734286  .00044336  00000+0  10961-2 0  99942 48000  53.1280 244.7377 0003786 316.0982  43.9722 15.40052813287553

JSON: /api/v1/satellites/48000 · /tle

For live sub-satellite position, see the globe view (requires WebGL).

§ Visibility from observer

Set your observer location to see the next 7 days of passes ≥ 10°. The values pass through the URL so the page stays shareable.

No JS? Fill the form by hand. The geolocation button needs JavaScript.